Regional Weather Roundup
Issued by NWS Newport/Morehead, NC

Current Version | Previous Version | Graphics & Text | Print | Product List | Glossary Off
Versions: 1 2 3 4 5 6 7 8 9 10 11 12 13 14 15 16 17 18 19 20 21 22 23 24 25 26 27 28 29 30 31 32 33 34 35 36 37 38 39 40 41 42 43 44 45 46 47 48 49 50

000
ASUS42 KMHX 230125
RWRMHX
WEATHER ROUNDUP FOR EASTERN NORTH CAROLINA
NATIONAL WEATHER SERVICE NEWPORT/MOREHEAD CITY NC
800 PM EST SUN JAN 22 2017

NOTE: "FAIR" INDICATES FEW OR NO CLOUDS BELOW 12,000 FEET
WITH NO SIGNIFICANT WEATHER AND/OR OBSTRUCTIONS TO VISIBILITY

NCZ015>017-031-032-045>047-102-103-230200-
NORTH COAST

CITY           SKY/WX    TMP DP  RH WIND       PRES   REMARKS
EDENTON        CLOUDY    54  53  96 E6        29.56F FOG
ELIZABETH CITY CLOUDY    51  50  96 N7        29.57F
KITTY HAWK     NOT AVBL
MANTEO         CLOUDY    49  49 100 N7        29.57F FOG

$$

NCZ045>047-081-094-103-104-230200-
CENTRAL COAST

CITY           SKY/WX    TMP DP  RH WIND       PRES   REMARKS
FRISCO         CLOUDY    55  53  93 N6        29.54F FOG

$$

NCZ095-097-098-100-101-230200-
SOUTHERN COAST

CITY           SKY/WX    TMP DP  RH WIND       PRES   REMARKS
BEAUFORT       CLOUDY    60  59  96 E5        29.53F
CEDAR ISLAND   NOT AVBL
JACKSONVILLE   CLOUDY    60  60 100 CALM      29.51R
PINEY ISLAND   CLOUDY   N/A N/A N/A E3        29.54F
WILMINGTON     CLOUDY    58  58 100 NE7       29.46F


$$

NCZ011>013-027>030-043-044-078>080-089-090>093-098-230200-
COASTAL PLAIN

CITY           SKY/WX    TMP DP  RH WIND       PRES   REMARKS
AHOSKIE        DRIZZLE   51  50  99 NE6       29.55F
CLINTON        CLOUDY    59  59 100 NE5       29.49S
ELIZABETHTOWN  CLOUDY    60  60 100 E3        29.48S
GOLDSBORO      CLOUDY    57  57 100 E12       29.46F
GREENVILLE     CLOUDY    55  55 100 E3        29.56S FOG
HAVELOCK       CLOUDY    59  57  93 SE9       29.52F
KENANSVILLE    CLOUDY    59  57  94 E5        29.49S
KINSTON        CLOUDY    57  57 100 E6        29.52F
NEW BERN       CLOUDY    59  57  93 E7        29.52F
RICHLANDS      LGT RAIN  59  58  96 E7        29.50S
ROCKY MOUNT    CLOUDY    53  53 100 NE7       29.51F FOG
WASHINGTON     CLOUDY    56  55  95 NE6         N/A
WHITEVILLE     RAIN      60  59  96 CALM      29.45F

$$

AMZ130-135-150-152-154-156-158-170-250-252-270-ANZ085-086-088-633-658-670-230200-
MARINE OBSERVATIONS

STATION/POSITION TIME  TEMP    WIND        PRES    WAVE   SWELL
                       AIR SEA DIR/SP/G            HT/PER HT/PER
                 (UTC) (F)     (DEG/KT/KT) (MB)    (FT/S) (FT/S)
CHESAPEAKE LIGHT NOT AVBL
64 E VA BEACH    0050   50 56  280/ 14/ 17 1000.9    5/13   3/13
DUCK             0054   47 47   20/  8/  9 1000.9
2 E DUCK         0100      46                N/A     3/12   2/12
OREGON INLET     0054   47 51  360/  7/ 11 1001.0
13E OREGON INLT  NOT AVBL
HATTERAS CG      0054   56 55   30/  3/  8  999.9
DIAMOND BUOY     2350   63 71  330/ 10/ 12 1001.0    4/13   3/13
CAPE LOOKOUT     0100   61      40/  9/ 10  999.7
BEAUFORT LAB     0054   60 52   70/  5/  7  998.9
30 SE NEW RVR IN 0108   61 68   70/  8/ 14  999.0
30 SE NEW RVR IN 0043      68                N/A     5/ 8   2/13
27 SE WRIGHTSVLE 0108   65 65  120/  8/ 12  997.4
5 SE WRIGHTSVLE  0108   57      80/ 10/ 14  997.5
225 S CAPE HAT   0050   69 71  340/ 10/ 12 1003.0   11/ 8  10/ 8
41 SE CHARLESTON 0050   68 67  120/ 23/ 27  995.6    6/ 8   5/ 8

$$



USA.gov is the U.S. government's official web portal to all federal, state and local government web resources and services.